• In Russia
  • List of Countries
  • For 7 days
  • Water Temperature
  • Satellite Maps
  • Weather Map
  • Weather Widgets
  • user-avatar
    Login

    Hourly Weather Wojcice

    Today, 25 May, Friday

    Time Temperature Precipitation Wind Pressure Humidity
    00:00 +14°C° 0 mm 3 mps 753 mmHg 84%
    01:00 +14°C° 0 mm 2 mps 752 mmHg 86%
    02:00 +14°C° 0 mm 2 mps 752 mmHg 88%
    03:00 +14°C° 0 mm 2 mps 752 mmHg 89%
    04:00 +13°C° 0 mm 2 mps 752 mmHg 90%
    05:00 +15°C° 0 mm 2 mps 752 mmHg 86%
    06:00 +16°C° 0 mm 2 mps 752 mmHg 81%
    07:00 +18°C° 0 mm 3 mps 752 mmHg 77%
    08:00 +19°C° 0.1 mm 3 mps 752 mmHg 71%
    09:00 +21°C° 0.1 mm 3 mps 752 mmHg 65%
    10:00 +22°C° 0.1 mm 4 mps 752 mmHg 59%
    11:00 +23°C° 0.2 mm 4 mps 752 mmHg 58%
    12:00 +23°C° 0.2 mm 4 mps 752 mmHg 57%
    13:00 +23°C° 0.2 mm 4 mps 751 mmHg 55%
    14:00 +23°C° 0.1 mm 4 mps 751 mmHg 56%
    15:00 +24°C° 0.1 mm 3 mps 751 mmHg 57%
    16:00 +24°C° 0.1 mm 3 mps 751 mmHg 57%
    17:00 +22°C° 0.2 mm 3 mps 751 mmHg 64%
    18:00 +21°C° 0.2 mm 2 mps 751 mmHg 71%
    19:00 +19°C° 0.2 mm 2 mps 751 mmHg 77%
    20:00 +18°C° 0 mm 2 mps 752 mmHg 80%
    21:00 +17°C° 0 mm 2 mps 752 mmHg 82%
    22:00 +16°C° 0 mm 1 mps 752 mmHg 85%
    23:00 +15°C° 0 mm 1 mps 752 mmHg 86%

    Tomorrow, 26 May, Saturday

    Time Temperature Precipitation Wind Pressure Humidity
    00:00 +15°C° 0 mm 1 mps 753 mmHg 87%
    01:00 +14°C° 0 mm 1 mps 753 mmHg 87%
    02:00 +14°C° 0 mm 1 mps 753 mmHg 88%
    03:00 +14°C° 0 mm 1 mps 753 mmHg 89%
    04:00 +12°C° 0 mm 0 mps 753 mmHg 89%
    05:00 +15°C° 0 mm 1 mps 753 mmHg 85%
    06:00 +18°C° 0 mm 1 mps 753 mmHg 80%
    07:00 +20°C° 0 mm 1 mps 753 mmHg 76%
    08:00 +21°C° 0 mm 1 mps 753 mmHg 70%
    09:00 +23°C° 0 mm 1 mps 754 mmHg 64%
    10:00 +24°C° 0 mm 1 mps 754 mmHg 59%
    11:00 +25°C° 0 mm 1 mps 753 mmHg 55%
    12:00 +26°C° 0 mm 1 mps 753 mmHg 52%
    13:00 +27°C° 0 mm 1 mps 753 mmHg 49%
    14:00 +27°C° 0 mm 2 mps 753 mmHg 49%
    15:00 +27°C° 0 mm 2 mps 752 mmHg 50%
    16:00 +27°C° 0 mm 2 mps 752 mmHg 50%
    17:00 +25°C° 0 mm 2 mps 752 mmHg 57%
    18:00 +24°C° 0 mm 2 mps 752 mmHg 63%
    19:00 +23°C° 0 mm 2 mps 752 mmHg 69%
    20:00 +21°C° 0 mm 1 mps 752 mmHg 72%
    21:00 +20°C° 0 mm 1 mps 752 mmHg 75%
    22:00 +19°C° 0 mm 1 mps 753 mmHg 78%
    23:00 +18°C° 0 mm 1 mps 753 mmHg 80%

    Day after tomorrow, 27 May, Sunday

    Time Temperature Precipitation Wind Pressure Humidity
    00:00 +18°C° 0 mm 1 mps 752 mmHg 82%
    01:00 +16°C° 0 mm 1 mps 752 mmHg 83%
    02:00 +16°C° 0 mm 1 mps 752 mmHg 85%
    03:00 +16°C° 0 mm 1 mps 752 mmHg 86%
    04:00 +15°C° 0 mm 1 mps 752 mmHg 87%
    05:00 +18°C° 0 mm 1 mps 752 mmHg 82%
    06:00 +20°C° 0 mm 1 mps 753 mmHg 78%
    07:00 +21°C° 0 mm 1 mps 753 mmHg 73%
    08:00 +23°C° 0 mm 1 mps 753 mmHg 68%
    09:00 +24°C° 0 mm 2 mps 753 mmHg 63%
    10:00 +25°C° 0 mm 2 mps 752 mmHg 59%
    11:00 +26°C° 0 mm 2 mps 752 mmHg 56%
    12:00 +27°C° 0 mm 2 mps 752 mmHg 54%
    13:00 +27°C° 0 mm 2 mps 752 mmHg 51%
    14:00 +27°C° 0.1 mm 2 mps 752 mmHg 52%
    15:00 +27°C° 0.1 mm 2 mps 752 mmHg 54%
    16:00 +27°C° 0.1 mm 3 mps 752 mmHg 55%
    17:00 +26°C° 0.1 mm 3 mps 752 mmHg 63%
    18:00 +25°C° 0.1 mm 3 mps 752 mmHg 70%
    19:00 +23°C° 0.1 mm 2 mps 752 mmHg 78%
    20:00 +21°C° 0 mm 2 mps 752 mmHg 82%
    21:00 +20°C° 0 mm 2 mps 752 mmHg 86%
    22:00 +18°C° 0 mm 2 mps 753 mmHg 90%
    23:00 +18°C° 0 mm 2 mps 753 mmHg 91%

    28 May, Monday

    Time Temperature Precipitation Wind Pressure Humidity
    00:00 +18°C° 0 mm 2 mps 753 mmHg 92%
    01:00 +17°C° 0 mm 2 mps 753 mmHg 94%
    02:00 +17°C° 0 mm 2 mps 753 mmHg 94%
    03:00 +17°C° 0 mm 2 mps 753 mmHg 95%
    04:00 +16°C° 0 mm 2 mps 753 mmHg 96%
    05:00 +18°C° 0 mm 3 mps 753 mmHg 91%
    06:00 +19°C° 0 mm 3 mps 753 mmHg 87%
    07:00 +20°C° 0 mm 3 mps 753 mmHg 83%
    08:00 +21°C° 0 mm 4 mps 753 mmHg 77%
    09:00 +22°C° 0 mm 4 mps 753 mmHg 71%
    10:00 +25°C° 0 mm 4 mps 754 mmHg 65%
    11:00 +26°C° 0 mm 4 mps 753 mmHg 62%
    12:00 +26°C° 0 mm 5 mps 753 mmHg 59%
    13:00 +27°C° 0 mm 5 mps 753 mmHg 56%
    14:00 +27°C° 0 mm 5 mps 753 mmHg 57%
    15:00 +27°C° 0 mm 5 mps 752 mmHg 57%
    16:00 +27°C° 0 mm 6 mps 752 mmHg 57%
    17:00 +26°C° 0 mm 5 mps 752 mmHg 62%
    18:00 +25°C° 0 mm 5 mps 752 mmHg 68%
    19:00 +22°C° 0 mm 4 mps 752 mmHg 73%
    20:00 +21°C° 0 mm 4 mps 752 mmHg 75%
    21:00 +20°C° 0 mm 4 mps 752 mmHg 78%
    22:00 +19°C° 0 mm 4 mps 753 mmHg 80%
    23:00 +18°C° 0 mm 4 mps 752 mmHg 82%

    29 May, Tuesday

    Time Temperature Precipitation Wind Pressure Humidity
    00:00 +18°C° 0 mm 4 mps 752 mmHg 84%
    01:00 +17°C° 0 mm 4 mps 752 mmHg 86%
    02:00 +17°C° 0 mm 3 mps 752 mmHg 88%
    03:00 +16°C° 0 mm 3 mps 752 mmHg 90%
    04:00 +16°C° 0 mm 3 mps 752 mmHg 91%
    05:00 +17°C° 0.1 mm 3 mps 752 mmHg 88%
    06:00 +18°C° 0.1 mm 4 mps 752 mmHg 85%
    07:00 +20°C° 0.1 mm 4 mps 752 mmHg 82%
    08:00 +21°C° 0.3 mm 4 mps 751 mmHg 77%
    09:00 +23°C° 0.3 mm 4 mps 751 mmHg 73%
    10:00 +26°C° 0.3 mm 4 mps 751 mmHg 69%
    11:00 +27°C° 0.7 mm 4 mps 751 mmHg 65%
    12:00 +27°C° 0.7 mm 4 mps 751 mmHg 62%
    13:00 +28°C° 0.7 mm 4 mps 751 mmHg 59%
    14:00 +28°C° 0.1 mm 5 mps 750 mmHg 60%
    15:00 +28°C° 0.1 mm 5 mps 750 mmHg 61%
    16:00 +28°C° 0.1 mm 5 mps 750 mmHg 62%
    17:00 +27°C° 0.1 mm 4 mps 750 mmHg 67%
    18:00 +26°C° 0.1 mm 4 mps 749 mmHg 72%
    19:00 +24°C° 0.1 mm 3 mps 749 mmHg 78%
    20:00 +22°C° 0.1 mm 3 mps 749 mmHg 80%
    21:00 +21°C° 0.1 mm 3 mps 750 mmHg 82%
    22:00 +20°C° 0.1 mm 3 mps 750 mmHg 85%
    23:00 +20°C° 0 mm 3 mps 749 mmHg 86%

    30 May, Wednesday

    Time Temperature Precipitation Wind Pressure Humidity
    00:00 +19°C° 0 mm 3 mps 749 mmHg 88%
    01:00 +19°C° 0 mm 3 mps 749 mmHg 89%
    02:00 +18°C° 0.1 mm 3 mps 749 mmHg 89%
    03:00 +18°C° 0.1 mm 3 mps 749 mmHg 89%
    04:00 +18°C° 0.1 mm 3 mps 748 mmHg 89%
    05:00 +20°C° 0 mm 4 mps 749 mmHg 84%
    06:00 +21°C° 0 mm 4 mps 749 mmHg 80%
    07:00 +22°C° 0 mm 4 mps 749 mmHg 76%
    08:00 +25°C° 0 mm 5 mps 749 mmHg 69%
    09:00 +26°C° 0 mm 5 mps 748 mmHg 63%
    10:00 +27°C° 0 mm 6 mps 748 mmHg 57%
    11:00 +28°C° 0 mm 5 mps 748 mmHg 55%
    12:00 +29°C° 0 mm 5 mps 748 mmHg 53%
    13:00 +30°C° 0 mm 5 mps 748 mmHg 51%
    14:00 +29°C° 0 mm 5 mps 748 mmHg 52%
    15:00 +29°C° 0 mm 4 mps 748 mmHg 53%
    16:00 +29°C° 0 mm 4 mps 747 mmHg 55%
    17:00 +28°C° 0 mm 3 mps 748 mmHg 60%
    18:00 +26°C° 0 mm 3 mps 748 mmHg 65%
    19:00 +25°C° 0 mm 2 mps 748 mmHg 71%
    20:00 +24°C° 0.1 mm 2 mps 748 mmHg 72%
    21:00 +23°C° 0.1 mm 2 mps 748 mmHg 73%
    22:00 +21°C° 0.1 mm 2 mps 748 mmHg 75%
    23:00 +21°C° 0 mm 2 mps 748 mmHg 75%
    Show more